GW0490 Weather Reports


Display with metric or nautical units.
time (UTC)temp
F
wind
direction
speed
MPH
gust
MPH
rain 1hr
in
rain 24hr
in
rain mn
in
humidity
%
barometer
mb
20260505140525 69 36 1.0 2.0 0.00 0.00 0.00 52 1003.6
20260505124938 64 63 1.0 3.0 0.00 0.00 0.00 59 1004.3
20260505124435 63 342 2.0 7.0 0.00 0.00 0.00 59 1004.4
20260505123931 63 352 2.0 5.0 0.00 0.00 0.00 60 1004.4
20260505123428 62 8 1.0 2.0 0.00 0.00 0.00 62 1004.4
20260505122923 61 66 1.0 2.0 0.00 0.00 0.00 66 1004.5
20260505122421 60 25 1.0 2.0 0.00 0.00 0.00 66 1004.2
20260505121918 60 16 0.0 1.0 0.00 0.00 0.00 67 1004.4
20260505121415 60 16 1.0 1.0 0.00 0.00 0.00 69 1004.3
20260505120911 58 356 1.0 2.0 0.00 0.00 0.00 74 1004.2
20260505120407 57 7 0.0 1.0 0.00 0.00 0.00 82 1004.1
20260505115906 56 7 0.0 1.0 0.00 0.00 0.00 84 1003.9
20260505115403 55 7 0.0 0.0 0.00 0.00 0.00 85 1003.8
20260505114901 53 6 0.0 0.0 0.00 0.00 0.00 89 1004.1
20260505114357 53 6 0.0 0.0 0.00 0.00 0.00 89 1004.2
20260505113853 52 6 0.0 0.0 0.00 0.00 0.00 90 1004.1
20260505113350 51 6 0.0 1.0 0.00 0.00 0.00 92 1004.3
20260505112846 50 6 0.0 0.0 0.00 0.00 0.00 92 1004.3
20260505112344 49 6 0.0 0.0 0.00 0.00 0.00 92 1004.2
20260505111839 48 6 0.0 0.0 0.00 0.00 0.00 93 1004.4
20260505111335 47 6 0.0 0.0 0.00 0.00 0.00 94 1004.2
20260505110831 46 6 0.0 0.0 0.00 0.00 0.00 96 1004.3
20260505110329 45 6 0.0 1.0 0.00 0.00 0.00 97 1004.2
20260505101803 43 6 0.0 1.0 0.00 0.00 0.00 99 1004.4
20260505101258 43 6 0.0 0.0 0.00 0.00 0.00 99 1004.4
20260505100755 43 6 0.0 0.0 0.00 0.00 0.00 99 1004.6
20260505100252 42 6 0.0 0.0 0.00 0.00 0.00 99 1004.5
20260505095747 43 6 0.0 0.0 0.00 0.00 0.00 98 1004.5
20260505095246 43 6 0.0 0.0 0.00 0.00 0.00 98 1004.7
20260505094740 43 6 0.0 0.0 0.00 0.00 0.00 98 1004.6
20260505094238 43 6 0.0 0.0 0.00 0.00 0.00 97 1004.2
20260505093734 43 6 0.0 0.0 0.00 0.00 0.00 96 1004.3
20260505093231 44 6 0.0 0.0 0.00 0.00 0.00 96 1004.6
20260505092728 44 6 0.0 0.0 0.00 0.00 0.00 96 1004.5
20260505092227 44 6 0.0 0.0 0.00 0.00 0.00 95 1004.5
20260505091723 44 6 0.0 1.0 0.00 0.00 0.00 95 1004.4
20260505091221 45 6 0.0 1.0 0.00 0.00 0.00 94 1004.6
20260505090719 45 6 0.0 1.0 0.00 0.00 0.00 94 1004.4
20260505090217 45 6 0.0 0.0 0.00 0.00 0.00 94 1004.3
20260505085714 45 6 0.0 1.0 0.00 0.00 0.00 93 1004.6
20260505085212 45 6 1.0 1.0 0.00 0.00 0.00 93 1004.4
20260505084709 45 6 0.0 0.0 0.00 0.00 0.00 93 1004.5
20260505084209 45 6 0.0 0.0 0.00 0.00 0.00 93 1004.5
20260505083705 46 6 0.0 1.0 0.00 0.00 0.00 92 1004.3
20260505083201 46 6 0.0 1.0 0.00 0.00 0.00 91 1004.7
20260505082657 46 6 0.0 1.0 0.00 0.00 0.00 92 1004.6
20260505082155 47 6 2.0 2.0 0.00 0.00 0.00 91 1004.5
20260505081650 47 6 1.0 3.0 0.00 0.00 0.00 90 1004.8
20260505081148 46 12 0.0 1.0 0.00 0.00 0.00 94 1004.9
20260505080645 46 12 0.0 1.0 0.00 0.00 0.00 94 1004.5
20260505080141 45 12 0.0 1.0 0.00 0.00 0.00 94 1004.7
20260505075637 45 12 0.0 0.0 0.00 0.00 0.00 94 1004.9
20260505075134 45 12 0.0 1.0 0.00 0.00 0.00 94 1004.8
20260505074631 45 12 0.0 0.0 0.00 0.00 0.00 94 1004.8
20260505074128 45 12 0.0 1.0 0.00 0.00 0.00 95 1004.7
20260505073626 45 12 0.0 0.0 0.00 0.00 0.00 96 1005.1
20260505073124 45 12 0.0 1.0 0.00 0.00 0.00 96 1004.9
20260505072619 45 12 0.0 1.0 0.00 0.00 0.00 96 1004.6
20260505072116 45 12 0.0 1.0 0.00 0.00 0.00 96 1004.6
20260505071611 44 12 0.0 1.0 0.00 0.00 0.00 97 1004.8
20260505071109 44 12 0.0 1.0 0.00 0.00 0.00 97 1004.7
20260505070606 44 12 2.0 2.0 0.00 0.00 0.00 96 1004.7
20260505065558 45 12 1.0 2.0 0.00 0.00 0.00 96 1004.8
20260505065055 44 12 1.0 2.0 0.00 0.00 0.00 96 1004.8
20260505064552 44 25 1.0 2.0 0.00 0.00 0.00 95 1004.9
20260505064051 45 12 2.0 2.0 0.00 0.00 0.00 94 1004.9
20260505063547 45 19 1.0 1.0 0.00 0.00 0.00 92 1004.9
20260505063043 44 9 1.0 2.0 0.00 0.00 0.00 92 1005.2
20260505062540 44 19 1.0 2.0 0.00 0.00 0.00 94 1005.0
20260505062037 44 20 1.0 2.0 0.00 0.00 0.00 94 1004.9
20260505061535 44 19 1.0 2.0 0.00 0.00 0.00 93 1004.9
20260505061032 44 19 1.0 1.0 0.00 0.00 0.00 95 1004.9
20260505060530 43 19 1.0 2.0 0.00 0.00 0.00 96 1004.8
20260505060026 42 28 1.0 2.0 0.00 0.00 0.00 95 1004.8
20260505055521 43 29 1.0 1.0 0.00 0.00 0.00 95 1004.9
20260505055018 43 29 1.0 1.0 0.00 0.00 0.00 93 1005.0
20260505054516 43 29 1.0 1.0 0.00 0.00 0.00 93 1004.9
20260505054014 43 29 1.0 1.0 0.00 0.00 0.00 93 1004.9
20260505053511 43 29 0.0 1.0 0.00 0.00 0.00 92 1004.8
20260505053008 44 29 0.0 1.0 0.00 0.00 0.00 92 1004.7
20260505052505 44 29 0.0 1.0 0.00 0.00 0.00 91 1004.9
20260505052002 44 29 0.0 0.0 0.00 0.00 0.00 91 1004.6
20260505051458 44 29 0.0 0.0 0.00 0.00 0.00 91 1004.8
20260505050957 44 29 0.0 0.0 0.00 0.00 0.00 90 1004.7
20260505050454 44 29 0.0 0.0 0.00 0.00 0.00 90 1004.7
20260505041422 46 29 0.0 0.0 0.00 0.00 0.00 87 1004.4
20260505040919 46 29 0.0 0.0 0.00 0.00 0.00 87 1004.2
20260505040417 46 29 0.0 0.0 0.00 0.00 0.00 87 1004.2
20260505035913 46 29 0.0 0.0 0.00 0.00 0.00 87 1004.3
20260505035409 46 29 0.0 1.0 0.00 0.00 0.00 87 1004.0
20260505034907 46 29 0.0 0.0 0.00 0.00 0.00 86 1004.2
20260505034403 47 29 0.0 0.0 0.00 0.00 0.00 85 1004.1
20260505033900 47 29 0.0 0.0 0.00 0.00 0.00 84 1004.2
20260505033357 47 29 0.0 0.0 0.00 0.00 0.00 84 1003.9
20260505032855 48 29 0.0 0.0 0.00 0.00 0.00 84 1003.9
20260505032352 48 29 0.0 0.0 0.00 0.00 0.00 83 1003.7
20260505031848 48 29 0.0 0.0 0.00 0.00 0.00 83 1003.7
20260505031345 49 29 0.0 0.0 0.00 0.00 0.00 82 1003.6
20260505030843 49 29 0.0 0.0 0.00 0.00 0.00 82 1003.7
20260505030338 49 29 0.0 0.0 0.00 0.00 0.00 82 1003.7
20260505025834 49 29 0.0 1.0 0.00 0.00 0.00 80 1003.7
20260505025332 50 29 0.0 0.0 0.00 0.00 0.00 80 1003.5
20260505024830 50 29 0.0 1.0 0.00 0.00 0.00 79 1003.7
20260505024327 50 29 0.0 0.0 0.00 0.00 0.00 79 1003.7
20260505023824 50 29 0.0 0.0 0.00 0.00 0.00 79 1003.7
20260505023321 50 29 0.0 0.0 0.00 0.00 0.00 77 1003.9
20260505022819 51 29 0.0 0.0 0.00 0.00 0.00 77 1003.8
20260505022315 51 29 0.0 0.0 0.00 0.00 0.00 77 1003.8
20260505021813 51 29 0.0 0.0 0.00 0.00 0.00 76 1003.7
20260505021309 51 30 0.0 0.0 0.00 0.00 0.00 75 1003.6
20260505020805 51 29 0.0 0.0 0.00 0.00 0.00 73 1003.7
20260505020301 52 29 0.0 0.0 0.00 0.00 0.00 72 1003.7
20260505015758 52 29 0.0 0.0 0.00 0.00 0.00 74 1003.5
20260505015255 52 29 0.0 0.0 0.00 0.00 0.00 72 1003.6
20260505014752 53 29 0.0 0.0 0.00 0.00 0.00 73 1003.6
20260505014249 53 29 0.0 0.0 0.00 0.00 0.00 72 1003.8
20260505013746 53 29 0.0 0.0 0.00 0.00 0.00 71 1003.8
20260505013243 54 29 0.0 0.0 0.00 0.00 0.00 71 1003.5
20260505012741 54 29 0.0 0.0 0.00 0.00 0.00 70 1003.3
20260505012238 54 29 0.0 0.0 0.00 0.00 0.00 69 1003.2
20260505011733 54 29 0.0 0.0 0.00 0.00 0.00 72 1003.4
20260505011231 55 29 0.0 0.0 0.00 0.00 0.00 69 1003.3
20260505010726 55 30 0.0 0.0 0.00 0.00 0.00 70 1003.2
20260505010223 55 30 0.0 0.0 0.00 0.00 0.00 68 1003.2
20260505005720 55 30 0.0 0.0 0.00 0.00 0.00 68 1003.1
20260505005217 56 30 0.0 0.0 0.00 0.00 0.00 66 1003.0
20260505004714 56 29 0.0 0.0 0.00 0.00 0.00 68 1002.9
20260505004210 56 29 0.0 0.0 0.00 0.00 0.00 66 1002.9
20260505003708 56 29 0.0 0.0 0.00 0.00 0.00 67 1002.6
20260505003206 57 29 0.0 0.0 0.00 0.00 0.00 65 1002.5
20260505002701 57 30 0.0 0.0 0.00 0.00 0.00 65 1002.6
20260505002159 57 30 0.0 0.0 0.00 0.00 0.00 64 1002.5
20260505001656 58 30 0.0 0.0 0.00 0.00 0.00 63 1002.3
20260505001154 58 30 0.0 0.0 0.00 0.00 0.00 62 1002.3
20260505000650 59 30 0.0 0.0 0.00 0.00 0.00 61 1002.4
20260505000148 59 30 0.0 1.0 0.00 0.00 0.00 60 1002.1
20260504235644 59 30 0.0 1.0 0.00 0.00 0.00 59 1002.1
20260504235141 60 30 0.0 0.0 0.00 0.00 0.00 58 1002.1
20260504234638 60 30 0.0 0.0 0.00 0.00 0.00 56 1002.1
20260504234136 61 30 0.0 0.0 0.00 0.00 0.00 55 1001.8
20260504233631 62 29 0.0 0.0 0.00 0.00 0.00 51 1001.7
20260504233127 63 29 0.0 0.0 0.00 0.00 0.00 49 1001.6
20260504232625 64 29 0.0 1.0 0.00 0.00 0.00 49 1001.5
20260504232122 64 50 1.0 3.0 0.00 0.00 0.00 46 1001.5
20260504231619 64 20 0.0 0.0 0.00 0.00 0.00 46 1001.6
20260504231115 65 20 0.0 1.0 0.00 0.00 0.00 45 1001.5
20260504230611 65 20 1.0 1.0 0.00 0.00 0.00 46 1001.5
20260504230110 66 19 0.0 0.0 0.00 0.00 0.00 44 1001.4
20260504225608 66 22 0.0 1.0 0.00 0.00 0.00 44 1001.3
20260504225104 66 10 2.0 3.0 0.00 0.00 0.00 41 1001.5
20260504224600 67 334 3.0 5.0 0.00 0.00 0.00 41 1001.4
20260504224058 67 73 2.0 5.0 0.00 0.00 0.00 40 1001.3
20260504223555 68 34 1.0 3.0 0.00 0.00 0.00 41 1001.1
20260504223050 68 288 4.0 8.0 0.00 0.00 0.00 39 1001.1
20260504222547 68 25 1.0 2.0 0.00 0.00 0.00 40 1001.1
20260504222045 68 30 1.0 3.0 0.00 0.00 0.00 39 1001.0
20260504221542 68 355 2.0 9.0 0.00 0.00 0.00 40 1001.1
20260504221039 68 38 2.0 2.0 0.00 0.00 0.00 40 1001.2
20260504220535 68 21 2.0 3.0 0.00 0.00 0.00 39 1001.1
20260504220032 68 47 3.0 5.0 0.00 0.00 0.00 38 1001.1
20260504215528 69 1 3.0 15.0 0.00 0.00 0.00 37 1001.3
20260504215026 69 17 1.0 2.0 0.00 0.00 0.00 36 1001.1
20260504214522 69 5 2.0 9.0 0.00 0.00 0.00 37 1001.2
20260504214018 69 13 2.0 5.0 0.00 0.00 0.00 37 1001.3
20260504213515 68 321 8.0 10.0 0.00 0.00 0.00 38 1001.2
20260504213012 68 52 2.0 7.0 0.00 0.00 0.00 39 1001.1
20260504212508 68 335 2.0 6.0 0.00 0.00 0.00 38 1001.2
20260504212006 67 35 4.0 6.0 0.00 0.00 0.00 39 1001.2
20260504211502 68 75 4.0 7.0 0.00 0.00 0.00 39 1001.2
20260504211000 68 33 1.0 3.0 0.00 0.00 0.00 40 1001.1
20260504210456 68 57 1.0 3.0 0.00 0.00 0.00 42 1001.3
20260504205953 68 41 1.0 3.0 0.00 0.00 0.00 42 1001.4
20260504205450 68 0 2.0 2.0 0.00 0.00 0.00 42 1001.2
20260504204949 69 235 2.0 5.0 0.00 0.00 0.00 40 1001.3
20260504204447 70 261 3.0 6.0 0.00 0.00 0.00 40 1001.4
20260504203945 69 94 2.0 2.0 0.00 0.00 0.00 41 1001.1
20260504203443 69 39 1.0 8.0 0.00 0.00 0.00 42 1001.3
20260504202939 69 279 4.0 6.0 0.00 0.00 0.00 40 1001.2
20260504202435 68 31 2.0 7.0 0.00 0.00 0.00 41 1001.3
20260504201932 67 29 3.0 9.0 0.00 0.00 0.00 43 1001.4
20260504201430 67 12 3.0 5.0 0.00 0.00 0.00 44 1001.3
20260504200927 67 279 4.0 6.0 0.00 0.00 0.00 42 1001.4
20260504200424 67 320 3.0 7.0 0.00 0.00 0.00 44 1001.4
20260504195920 67 311 4.0 6.0 0.00 0.00 0.00 43 1001.3
20260504195416 66 355 0.0 10.0 0.00 0.00 0.00 44 1001.3
20260504194913 67 13 1.0 5.0 0.00 0.00 0.00 44 1001.5
20260504194409 68 83 3.0 7.0 0.00 0.00 0.00 44 1001.5
20260504193905 68 310 2.0 5.0 0.00 0.00 0.00 43 1001.6
20260504193403 67 38 1.0 7.0 0.00 0.00 0.00 45 1001.6
20260504192901 67 112 5.0 10.0 0.00 0.00 0.00 43 1001.7
20260504192358 67 52 2.0 5.0 0.00 0.00 0.00 45 1002.0
20260504191856 66 15 0.0 10.0 0.00 0.00 0.00 46 1001.9
20260504191354 66 21 1.0 7.0 0.00 0.00 0.00 46 1002.0
20260504190849 65 19 1.0 2.0 0.00 0.00 0.00 47 1001.9
20260504190345 65 8 2.0 8.0 0.00 0.00 0.00 47 1002.4
20260504185842 65 11 2.0 6.0 0.00 0.00 0.00 47 1002.1
20260504185339 65 17 4.0 5.0 0.00 0.00 0.00 46 1002.1
20260504184835 65 237 3.0 6.0 0.00 0.00 0.00 47 1002.1
20260504184331 64 161 3.0 5.0 0.00 0.00 0.00 47 1002.2
20260504183827 64 341 3.0 6.0 0.00 0.00 0.00 49 1002.2
20260504183325 65 260 4.0 8.0 0.00 0.00 0.00 48 1002.2
20260504182822 64 206 6.0 8.0 0.00 0.00 0.00 50 1002.3
20260504182320 63 309 2.0 3.0 0.00 0.00 0.00 51 1002.4
20260504181816 62 17 1.0 2.0 0.00 0.00 0.00 53 1002.5
20260504181314 62 27 2.0 2.0 0.00 0.00 0.00 53 1002.6
20260504180813 62 15 3.0 5.0 0.00 0.00 0.00 53 1002.4
20260504180311 62 17 3.0 5.0 0.00 0.00 0.00 55 1002.8
20260504175809 60 26 2.0 5.0 0.00 0.00 0.00 57 1002.7
20260504175305 59 45 1.0 2.0 0.00 0.00 0.00 59 1002.6
20260504174804 59 26 1.0 3.0 0.00 0.00 0.00 58 1002.9
20260504174301 59 9 2.0 2.0 0.00 0.00 0.00 58 1002.9
20260504173757 59 35 1.0 2.0 0.00 0.00 0.00 58 1002.8
20260504173254 59 39 2.0 6.0 0.00 0.00 0.00 58 1002.9
20260504172751 59 354 4.0 6.0 0.00 0.00 0.00 58 1003.0
20260504172247 60 26 5.0 6.0 0.00 0.00 0.00 55 1002.8
20260504171743 60 19 2.0 3.0 0.00 0.00 0.00 55 1002.7
20260504171241 61 32 6.0 8.0 0.00 0.00 0.00 55 1002.8
20260504170738 60 17 7.0 10.0 0.00 0.00 0.00 55 1002.8
20260504170235 59 33 2.0 8.0 0.00 0.00 0.00 56 1002.8
20260504160153 62 0 3.0 7.0 0.00 0.00 0.00 48 1001.9
20260504151121 63 60 2.0 7.0 0.00 0.00 0.00 49 1002.1
20260504150618 63 293 3.0 5.0 0.00 0.00 0.00 50 1002.2
20260504150115 62 227 7.0 8.0 0.00 0.00 0.00 49 1002.0